FW2332 Weather Reports


Display with metric or nautical units.
time (UTC)temp
F
wind
direction
speed
MPH
gust
MPH
rain 1hr
in
rain 24hr
in
rain mn
in
humidity
%
barometer
mb
20260503234231 78 353 5.0 0.0 0.00 0.00 0.00 42 1010.9
20260503234221 78 3 4.0 0.0 0.00 0.00 0.00 42 1010.9
20260503233819 78 350 2.0 0.0 0.00 0.00 0.00 42 1010.9
20260503233619 79 8 1.0 0.0 0.00 0.00 0.00 42 1011.0
20260503233418 79 269 1.0 0.0 0.00 0.00 0.00 40 1011.0
20260503233218 81 1 4.0 0.0 0.00 0.00 0.00 39 1011.0
20260503233017 82 328 2.0 0.0 0.00 0.00 0.00 37 1011.0
20260503232616 82 34 2.0 0.0 0.00 0.00 0.00 37 1011.1
20260503232416 82 342 1.0 0.0 0.00 0.00 0.00 37 1011.0
20260503232215 83 12 2.0 0.0 0.00 0.00 0.00 36 1011.1
20260503232015 83 325 2.0 0.0 0.00 0.00 0.00 36 1011.1
20260503231815 83 343 3.0 0.0 0.00 0.00 0.00 35 1011.3
20260503231414 83 22 4.0 0.0 0.00 0.00 0.00 35 1011.2
20260503231014 83 275 0.0 0.0 0.00 0.00 0.00 35 1011.4
20260503230823 83 322 3.0 0.0 0.00 0.00 0.00 35 1011.4
20260503230814 82 356 3.0 0.0 0.00 0.00 0.00 36 1011.3
20260503230412 83 342 2.0 0.0 0.00 0.00 0.00 35 1011.4
20260503230213 84 346 5.0 0.0 0.00 0.00 0.00 34 1011.3
20260503230012 84 344 3.0 0.0 0.00 0.00 0.00 35 1011.4
20260503225811 84 332 1.0 0.0 0.00 0.00 0.00 35 1011.5
20260503225620 84 336 4.0 0.0 0.00 0.00 0.00 35 1011.5
20260503225610 84 349 6.0 0.0 0.00 0.00 0.00 35 1011.5
20260503225423 84 298 1.0 0.0 0.00 0.00 0.00 35 1011.5
20260503225010 84 53 2.0 0.0 0.00 0.00 0.00 35 1011.5
20260503224810 85 284 1.0 0.0 0.00 0.00 0.00 35 1011.5
20260503224610 84 4 4.0 0.0 0.00 0.00 0.00 34 1011.4
20260503224409 85 359 2.0 0.0 0.00 0.00 0.00 34 1011.5
20260503224208 85 359 4.0 0.0 0.00 0.00 0.00 34 1011.5
20260503224007 86 328 1.0 0.0 0.00 0.00 0.00 34 1011.6
20260503223807 86 330 1.0 0.0 0.00 0.00 0.00 34 1011.5
20260503223607 86 2 0.0 0.0 0.00 0.00 0.00 34 1011.6
20260503223407 86 29 1.0 0.0 0.00 0.00 0.00 34 1011.6
20260503223207 86 31 1.0 0.0 0.00 0.00 0.00 33 1011.6
20260503223006 85 71 1.0 0.0 0.00 0.00 0.00 33 1011.6
20260503222817 85 22 1.0 0.0 0.00 0.00 0.00 34 1011.7
20260503222806 85 339 6.0 0.0 0.00 0.00 0.00 33 1011.7
20260503222415 85 302 2.0 0.0 0.00 0.00 0.00 33 1011.9
20260503222406 85 344 3.0 0.0 0.00 0.00 0.00 32 1011.7
20260503221812 85 8 0.0 0.0 0.00 0.00 0.00 34 1012.0
20260503221803 85 81 0.0 0.0 0.00 0.00 0.00 33 1011.9
20260503221411 84 289 2.0 0.0 0.00 0.00 0.00 34 1012.0
20260503221402 85 151 1.0 0.0 0.00 0.00 0.00 35 1012.1
20260503221002 85 62 1.0 0.0 0.00 0.00 0.00 34 1012.0
20260503220801 85 343 1.0 0.0 0.00 0.00 0.00 35 1012.0
20260503220610 84 34 1.0 0.0 0.00 0.00 0.00 34 1012.1
20260503220602 84 327 2.0 0.0 0.00 0.00 0.00 34 1012.1
20260503220412 84 90 1.0 0.0 0.00 0.00 0.00 35 1012.2
20260503215359 83 330 3.0 0.0 0.00 0.00 0.00 36 1012.2
20260503215158 84 287 0.0 0.0 0.00 0.00 0.00 36 1012.2
20260503214958 83 95 1.0 0.0 0.00 0.00 0.00 36 1012.3
20260503214758 82 346 4.0 0.0 0.00 0.00 0.00 36 1012.2
20260503214558 83 67 2.0 0.0 0.00 0.00 0.00 36 1012.3
20260503214357 83 326 2.0 0.0 0.00 0.00 0.00 36 1012.3
20260503214156 84 308 0.0 0.0 0.00 0.00 0.00 36 1012.1
20260503213955 84 313 1.0 0.0 0.00 0.00 0.00 36 1012.2
20260503213754 83 43 2.0 0.0 0.00 0.00 0.00 36 1012.3
20260503213554 83 288 2.0 0.0 0.00 0.00 0.00 37 1012.4
20260503213353 83 339 3.0 0.0 0.00 0.00 0.00 38 1012.5
20260503212951 84 334 3.0 0.0 0.00 0.00 0.00 37 1012.4
20260503212751 84 34 1.0 0.0 0.00 0.00 0.00 37 1012.5
20260503212550 83 36 1.0 0.0 0.00 0.00 0.00 39 1012.5
20260503212349 83 0 2.0 0.0 0.00 0.00 0.00 39 1012.5
20260503212148 82 324 2.0 0.0 0.00 0.00 0.00 38 1012.5
20260503211949 82 329 2.0 0.0 0.00 0.00 0.00 39 1012.5
20260503211747 83 327 2.0 0.0 0.00 0.00 0.00 39 1012.6
20260503211546 82 338 4.0 0.0 0.00 0.00 0.00 39 1012.5
20260503211345 82 343 3.0 0.0 0.00 0.00 0.00 39 1012.6
20260503211144 82 318 3.0 0.0 0.00 0.00 0.00 37 1012.6
20260503210943 83 327 4.0 0.0 0.00 0.00 0.00 37 1012.6
20260503210743 83 329 1.0 0.0 0.00 0.00 0.00 37 1012.6
20260503210542 84 24 1.0 0.0 0.00 0.00 0.00 37 1012.6
20260503210140 83 340 3.0 0.0 0.00 0.00 0.00 38 1012.6
20260503205939 83 326 2.0 0.0 0.00 0.00 0.00 38 1012.7
20260503205546 83 7 1.0 0.0 0.00 0.00 0.00 41 1012.7
20260503205537 84 29 2.0 0.0 0.00 0.00 0.00 39 1012.7
20260503205348 82 49 1.0 0.0 0.00 0.00 0.00 43 1012.8
20260503205145 81 32 2.0 0.0 0.00 0.00 0.00 42 1012.7
20260503204735 81 70 1.0 0.0 0.00 0.00 0.00 42 1012.8
20260503204534 81 340 2.0 0.0 0.00 0.00 0.00 42 1012.9
20260503204334 81 335 3.0 0.0 0.00 0.00 0.00 42 1012.9
20260503204133 81 10 5.0 0.0 0.00 0.00 0.00 41 1013.0
20260503203933 82 333 6.0 0.0 0.00 0.00 0.00 40 1012.9
20260503203733 83 70 1.0 0.0 0.00 0.00 0.00 41 1012.9
20260503203532 81 33 1.0 0.0 0.00 0.00 0.00 42 1013.0
20260503203331 81 310 2.0 0.0 0.00 0.00 0.00 42 1013.1
20260503203142 80 317 2.0 0.0 0.00 0.00 0.00 43 1013.1
20260503203130 81 345 4.0 0.0 0.00 0.00 0.00 43 1013.1
20260503202528 79 10 2.0 0.0 0.00 0.00 0.00 44 1013.1
20260503202327 80 338 3.0 0.0 0.00 0.00 0.00 42 1013.1
20260503202138 80 353 1.0 0.0 0.00 0.00 0.00 42 1013.1
20260503202125 80 334 2.0 0.0 0.00 0.00 0.00 43 1013.2
20260503201725 81 14 1.0 0.0 0.00 0.00 0.00 42 1013.1
20260503201524 81 326 2.0 0.0 0.00 0.00 0.00 42 1013.2
20260503201337 80 55 1.0 0.0 0.00 0.00 0.00 43 1013.2
20260503201323 81 302 1.0 0.0 0.00 0.00 0.00 42 1013.1
20260503200922 79 353 5.0 0.0 0.00 0.00 0.00 44 1013.2
20260503200521 80 296 2.0 0.0 0.00 0.00 0.00 43 1013.2
20260503200320 80 216 1.0 0.0 0.00 0.00 0.00 43 1013.3
20260503200119 80 5 4.0 0.0 0.00 0.00 0.00 42 1013.2
20260503195919 80 14 1.0 0.0 0.00 0.00 0.00 42 1013.2
20260503195729 80 315 1.0 0.0 0.00 0.00 0.00 43 1013.3
20260503195719 80 327 2.0 0.0 0.00 0.00 0.00 42 1013.4
20260503195317 79 335 3.0 0.0 0.00 0.00 0.00 44 1013.5
20260503195116 79 341 3.0 0.0 0.00 0.00 0.00 44 1013.4
20260503194916 79 340 6.0 0.0 0.00 0.00 0.00 42 1013.4
20260503194726 81 342 2.0 0.0 0.00 0.00 0.00 43 1013.6
20260503194714 80 22 1.0 0.0 0.00 0.00 0.00 41 1013.5
20260503194313 81 342 1.0 0.0 0.00 0.00 0.00 43 1013.5
20260503194111 80 349 2.0 0.0 0.00 0.00 0.00 43 1013.6
20260503193911 80 347 4.0 0.0 0.00 0.00 0.00 42 1013.6
20260503193712 79 302 2.0 0.0 0.00 0.00 0.00 44 1013.7
20260503193510 79 293 2.0 0.0 0.00 0.00 0.00 44 1013.7
20260503193320 80 328 2.0 0.0 0.00 0.00 0.00 43 1013.7
20260503193309 79 326 6.0 0.0 0.00 0.00 0.00 42 1013.7
20260503192908 80 3 4.0 0.0 0.00 0.00 0.00 43 1013.7
20260503192707 80 5 3.0 0.0 0.00 0.00 0.00 43 1013.8
20260503192307 78 332 2.0 0.0 0.00 0.00 0.00 44 1013.7
20260503192118 78 146 2.0 0.0 0.00 0.00 0.00 44 1013.9
20260503192107 78 316 0.0 0.0 0.00 0.00 0.00 45 1013.9
20260503191705 79 344 1.0 0.0 0.00 0.00 0.00 44 1014.0
20260503191504 79 321 2.0 0.0 0.00 0.00 0.00 44 1014.0
20260503191104 79 321 3.0 0.0 0.00 0.00 0.00 45 1013.8
20260503190902 79 74 2.0 0.0 0.00 0.00 0.00 44 1013.8
20260503190703 79 344 1.0 0.0 0.00 0.00 0.00 45 1013.9
20260503190502 78 68 3.0 0.0 0.00 0.00 0.00 45 1013.8
20260503190313 78 353 1.0 0.0 0.00 0.00 0.00 46 1013.9
20260503190110 77 27 2.0 0.0 0.00 0.00 0.00 45 1014.0
20260503185658 77 8 3.0 0.0 0.00 0.00 0.00 47 1014.0
20260503185458 77 18 2.0 0.0 0.00 0.00 0.00 46 1014.1
20260503185258 77 297 2.0 0.0 0.00 0.00 0.00 46 1014.1
20260503185057 76 93 0.0 0.0 0.00 0.00 0.00 46 1014.1
20260503184909 76 326 0.0 0.0 0.00 0.00 0.00 47 1014.2
20260503184857 76 354 2.0 0.0 0.00 0.00 0.00 45 1014.1
20260503184456 75 348 4.0 0.0 0.00 0.00 0.00 46 1014.1
20260503184256 75 343 2.0 0.0 0.00 0.00 0.00 46 1014.1
20260503184107 75 61 2.0 0.0 0.00 0.00 0.00 48 1014.3
20260503184056 75 294 1.0 0.0 0.00 0.00 0.00 48 1014.3
20260503183656 74 338 1.0 0.0 0.00 0.00 0.00 49 1014.2
20260503183456 74 298 1.0 0.0 0.00 0.00 0.00 48 1014.4
20260503183254 74 346 2.0 0.0 0.00 0.00 0.00 49 1014.4
20260503183054 73 2 5.0 0.0 0.00 0.00 0.00 49 1014.4
20260503182854 73 262 0.0 0.0 0.00 0.00 0.00 51 1014.4
20260503182707 73 340 4.0 0.0 0.00 0.00 0.00 51 1014.4
20260503182654 73 343 1.0 0.0 0.00 0.00 0.00 50 1014.5
20260503182104 72 65 0.0 0.0 0.00 0.00 0.00 51 1014.4
20260503182053 72 2 1.0 0.0 0.00 0.00 0.00 52 1014.3
20260503181651 72 331 2.0 0.0 0.00 0.00 0.00 53 1014.6
20260503181250 71 17 1.0 0.0 0.00 0.00 0.00 52 1014.5
20260503181050 71 264 1.0 0.0 0.00 0.00 0.00 53 1014.6
20260503180901 71 267 2.0 0.0 0.00 0.00 0.00 54 1014.6
20260503180850 71 354 1.0 0.0 0.00 0.00 0.00 52 1014.4
20260503180448 71 52 0.0 0.0 0.00 0.00 0.00 53 1014.6
20260503180047 70 78 0.0 0.0 0.00 0.00 0.00 54 1014.6
20260503175847 70 355 3.0 0.0 0.00 0.00 0.00 54 1014.6
20260503175700 70 17 2.0 0.0 0.00 0.00 0.00 55 1014.7
20260503175647 70 291 2.0 0.0 0.00 0.00 0.00 54 1014.6
20260503175245 70 319 2.0 0.0 0.00 0.00 0.00 55 1014.6
20260503175045 70 241 2.0 0.0 0.00 0.00 0.00 57 1014.7
20260503174643 69 325 1.0 0.0 0.00 0.00 0.00 56 1014.8
20260503174443 69 42 1.0 0.0 0.00 0.00 0.00 57 1014.7
20260503174242 69 216 0.0 0.0 0.00 0.00 0.00 58 1014.8
20260503174041 69 70 2.0 0.0 0.00 0.00 0.00 57 1014.7
20260503173841 69 59 2.0 0.0 0.00 0.00 0.00 58 1014.7
20260503173640 68 339 4.0 0.0 0.00 0.00 0.00 58 1014.7
20260503173440 68 29 1.0 0.0 0.00 0.00 0.00 58 1014.7
20260503173239 68 52 3.0 0.0 0.00 0.00 0.00 59 1014.7
20260503173038 68 351 3.0 0.0 0.00 0.00 0.00 59 1014.9
20260503172638 67 259 1.0 0.0 0.00 0.00 0.00 59 1014.8
20260503172436 67 8 2.0 0.0 0.00 0.00 0.00 60 1014.8
20260503172236 67 34 1.0 0.0 0.00 0.00 0.00 61 1014.8
20260503172035 67 345 4.0 0.0 0.00 0.00 0.00 60 1014.9
20260503171846 66 293 2.0 0.0 0.00 0.00 0.00 62 1014.9
20260503171835 67 330 1.0 0.0 0.00 0.00 0.00 62 1014.8
20260503171643 66 35 3.0 0.0 0.00 0.00 0.00 62 1015.0
20260503171233 66 6 1.0 0.0 0.00 0.00 0.00 62 1014.9
20260503171032 66 344 2.0 0.0 0.00 0.00 0.00 62 1015.0
20260503170842 66 344 2.0 0.0 0.00 0.00 0.00 62 1015.0
20260503170831 66 353 2.0 0.0 0.00 0.00 0.00 62 1015.0
20260503170441 65 12 1.0 0.0 0.00 0.00 0.00 63 1015.0
20260503160208 63 4 1.0 0.0 0.00 0.00 0.00 67 1015.1
20260503150950 60 356 2.0 0.0 0.00 0.00 0.00 71 1015.3
20260503150749 60 332 1.0 0.0 0.00 0.00 0.00 71 1015.2
20260503150547 60 8 1.0 0.0 0.00 0.00 0.00 71 1015.2
20260503150346 60 36 1.0 0.0 0.00 0.00 0.00 70 1015.1
20260503150146 60 346 4.0 0.0 0.00 0.00 0.00 71 1015.2
20260503130511 56 327 1.0 0.0 0.00 0.00 0.00 74 1014.8
20260503130111 56 304 0.0 0.0 0.00 0.00 0.00 74 1014.7
20260503110435 54 11 3.0 0.0 0.00 0.00 0.00 80 1015.3
20260503110234 54 356 3.0 0.0 0.00 0.00 0.00 80 1015.3
20260503100209 55 338 1.0 0.0 0.00 0.00 0.00 76 1015.3
20260503090354 57 187 0.0 0.0 0.00 0.00 0.00 71 1015.2
20260503072929 60 337 0.0 0.0 0.00 0.00 0.00 63 1015.2
20260503072125 60 4 1.0 0.0 0.00 0.00 0.00 62 1015.2
20260503060106 61 333 1.0 0.0 0.00 0.00 0.00 62 1015.0
20260503054901 62 345 1.0 0.0 0.00 0.00 0.00 59 1015.0
20260503054713 62 343 2.0 0.0 0.00 0.00 0.00 60 1015.0
20260503053859 62 333 1.0 0.0 0.00 0.00 0.00 59 1014.8
20260503053658 62 16 0.0 0.0 0.00 0.00 0.00 61 1014.9
20260503052855 63 329 1.0 0.0 0.00 0.00 0.00 59 1015.0
20260503051653 63 2 0.0 0.0 0.00 0.00 0.00 59 1014.9
20260503050905 63 349 1.0 0.0 0.00 0.00 0.00 60 1014.7
20260503045449 64 333 1.0 0.0 0.00 0.00 0.00 57 1014.7
20260503045247 64 205 0.0 0.0 0.00 0.00 0.00 57 1014.8
20260503043845 64 108 1.0 0.0 0.00 0.00 0.00 56 1014.7
20260503043043 64 113 0.0 0.0 0.00 0.00 0.00 57 1014.7
20260503042842 64 91 0.0 0.0 0.00 0.00 0.00 57 1014.7
20260503042441 64 198 1.0 0.0 0.00 0.00 0.00 56 1014.5
20260503041841 65 39 1.0 0.0 0.00 0.00 0.00 55 1014.3
20260503040247 65 272 1.0 0.0 0.00 0.00 0.00 56 1014.2
20260503035436 65 237 1.0 0.0 0.00 0.00 0.00 55 1014.3
20260503035034 65 245 1.0 0.0 0.00 0.00 0.00 55 1014.3
20260503034632 66 251 2.0 0.0 0.00 0.00 0.00 56 1014.1
20260503033843 66 323 1.0 0.0 0.00 0.00 0.00 55 1013.9
20260503033830 66 297 1.0 0.0 0.00 0.00 0.00 56 1014.0
20260503033429 66 319 1.0 0.0 0.00 0.00 0.00 54 1013.9
20260503031224 68 268 1.0 0.0 0.00 0.00 0.00 52 1013.6
20260503031034 68 253 1.0 0.0 0.00 0.00 0.00 52 1013.7
20260503030021 68 313 0.0 0.0 0.00 0.00 0.00 52 1013.6
20260503025220 68 342 1.0 0.0 0.00 0.00 0.00 52 1013.6
20260503025019 69 356 1.0 0.0 0.00 0.00 0.00 52 1013.6
20260503024818 69 222 1.0 0.0 0.00 0.00 0.00 52 1013.7
20260503024618 69 262 1.0 0.0 0.00 0.00 0.00 51 1013.5
20260503024026 70 328 2.0 0.0 0.00 0.00 0.00 50 1013.7
20260503024016 70 290 1.0 0.0 0.00 0.00 0.00 50 1013.7
20260503023614 70 358 1.0 0.0 0.00 0.00 0.00 49 1013.6
20260503023414 70 345 1.0 0.0 0.00 0.00 0.00 50 1013.7
20260503022612 70 321 2.0 0.0 0.00 0.00 0.00 49 1013.4
20260503022411 70 250 2.0 0.0 0.00 0.00 0.00 48 1013.6
20260503021809 71 359 1.0 0.0 0.00 0.00 0.00 47 1013.7
20260503021608 71 256 1.0 0.0 0.00 0.00 0.00 48 1013.5
20260503021408 71 34 1.0 0.0 0.00 0.00 0.00 49 1013.6
20260503021207 71 84 1.0 0.0 0.00 0.00 0.00 46 1013.6
20260503021008 71 259 1.0 0.0 0.00 0.00 0.00 47 1013.7
20260503020806 71 273 1.0 0.0 0.00 0.00 0.00 48 1013.6
20260503020404 71 351 2.0 0.0 0.00 0.00 0.00 48 1013.7
20260503020004 71 260 1.0 0.0 0.00 0.00 0.00 49 1013.7
20260503015603 71 18 2.0 0.0 0.00 0.00 0.00 48 1013.5
20260503015402 71 16 1.0 0.0 0.00 0.00 0.00 50 1013.8
20260503015201 71 17 3.0 0.0 0.00 0.00 0.00 49 1013.5
20260503015001 72 328 2.0 0.0 0.00 0.00 0.00 49 1013.6
20260503014609 72 268 1.0 0.0 0.00 0.00 0.00 49 1013.7
20260503014600 72 352 2.0 0.0 0.00 0.00 0.00 47 1013.7
20260503014157 72 336 2.0 0.0 0.00 0.00 0.00 49 1013.6
20260503013957 72 302 2.0 0.0 0.00 0.00 0.00 49 1013.6
20260503013408 72 236 1.0 0.0 0.00 0.00 0.00 49 1013.8
20260503013355 72 350 2.0 0.0 0.00 0.00 0.00 50 1013.6
20260503012953 72 331 1.0 0.0 0.00 0.00 0.00 48 1013.7
20260503012751 72 336 2.0 0.0 0.00 0.00 0.00 48 1013.7
20260503012601 72 314 0.0 0.0 0.00 0.00 0.00 48 1013.7
20260503012551 72 231 1.0 0.0 0.00 0.00 0.00 47 1013.8
20260503012150 72 184 1.0 0.0 0.00 0.00 0.00 47 1013.7
20260503011747 72 278 2.0 0.0 0.00 0.00 0.00 48 1013.7
20260503011547 72 239 1.0 0.0 0.00 0.00 0.00 48 1013.7
20260503011146 73 184 1.0 0.0 0.00 0.00 0.00 49 1013.6
20260503010945 73 314 1.0 0.0 0.00 0.00 0.00 48 1013.7
20260503010745 73 299 0.0 0.0 0.00 0.00 0.00 46 1013.7
20260503010558 73 90 2.0 0.0 0.00 0.00 0.00 49 1013.7
20260503005942 73 316 2.0 0.0 0.00 0.00 0.00 49 1013.5
20260503005542 73 360 2.0 0.0 0.00 0.00 0.00 48 1013.7
20260503005341 73 341 1.0 0.0 0.00 0.00 0.00 48 1013.7
20260503005140 73 344 3.0 0.0 0.00 0.00 0.00 48 1013.7
20260503004739 73 332 3.0 0.0 0.00 0.00 0.00 49 1013.6
20260503004538 73 302 2.0 0.0 0.00 0.00 0.00 49 1013.8
20260503003938 73 9 2.0 0.0 0.00 0.00 0.00 50 1013.7
20260503003738 73 286 2.0 0.0 0.00 0.00 0.00 49 1013.7
20260503003537 73 310 1.0 0.0 0.00 0.00 0.00 49 1013.9
20260503003337 73 7 4.0 0.0 0.00 0.00 0.00 49 1013.9
20260503003135 73 344 1.0 0.0 0.00 0.00 0.00 49 1013.9
20260503002935 73 334 4.0 0.0 0.00 0.00 0.00 48 1013.9
20260503002744 73 334 2.0 0.0 0.00 0.00 0.00 48 1013.8
20260503002734 73 314 1.0 0.0 0.00 0.00 0.00 49 1013.9
20260503002546 73 329 3.0 0.0 0.00 0.00 0.00 48 1013.8
20260503002133 73 2 3.0 0.0 0.00 0.00 0.00 47 1014.0
20260503001931 74 339 4.0 0.0 0.00 0.00 0.00 48 1013.9
20260503001745 74 349 3.0 0.0 0.00 0.00 0.00 48 1013.9
20260503001731 74 339 5.0 0.0 0.00 0.00 0.00 48 1013.8
20260503001330 74 328 2.0 0.0 0.00 0.00 0.00 47 1014.0
20260503001131 74 330 3.0 0.0 0.00 0.00 0.00 48 1013.9
20260503000930 74 328 1.0 0.0 0.00 0.00 0.00 48 1014.0
20260503000729 74 350 4.0 0.0 0.00 0.00 0.00 48 1013.9
20260503000329 74 44 2.0 0.0 0.00 0.00 0.00 50 1014.0
20260502235727 74 19 3.0 0.0 0.00 0.00 0.00 48 1014.2
20260502235526 74 345 3.0 0.0 0.00 0.00 0.00 49 1014.0
20260502235325 73 339 1.0 0.0 0.00 0.00 0.00 50 1014.2
20260502235124 74 326 2.0 0.0 0.00 0.00 0.00 49 1014.2
20260502234924 74 15 3.0 0.0 0.00 0.00 0.00 49 1014.2
20260502234723 74 309 0.0 0.0 0.00 0.00 0.00 49 1014.3
20260502234523 74 287 0.0 0.0 0.00 0.00 0.00 49 1014.2